AirNav   Everest Fuels
 
 1431 users online  

P72 Penn's Landing Heliport
Philadelphia, Pennsylvania, USA

GOING TO PHILADELPHIA?


FAA INFORMATION EFFECTIVE 18 JUNE 2020

Location

FAA Identifier: P72
Lat/Long: 39-56-14.4060N 075-08-28.6360W
39-56.240100N 075-08.477267W
39.9373350,-75.1412878
(estimated)
Elevation: 15 ft. / 5 m (estimated)
Variation: 11W (1985)
Time zone: UTC -4 (UTC -5 during Standard Time)
Zip code: 19147

Heliport Operations

Heliport use: Open to the public
Activation date: 07/1985
Control tower: no
ARTCC: NEW YORK CENTER
FSS: WILLIAMSPORT FLIGHT SERVICE STATION
NOTAMs facility: IPT (NOTAM-D service available)
Attendance: MON-FRI 0800-1800
FOR ATTENDANCE ON WEEKENDS/HOLIDAYS CALL 215-271-2510.
Wind indicator: lighted
Segmented circle: no
Lights: ACTVT PERIMETER LGTS - 123.025.
Beacon: white-green-yellow (heliport)
Landing fee: yes

Heliport Communications

CTAF: 122.9
WX ASOS at PHL (6 nm SW): PHONE 215-492-9617
WX ASOS at PNE (11 nm NE): 121.15 (215-677-0146)
WX AWOS-3 at LOM (13 nm NW): 118.925 (215-646-1068)
WX ASOS at VAY (14 nm E): 119.325 (609-267-1176)
  • CLEARANCE DELIVERY PHILADELPHIA APCH TF 800-354-9884.

Nearby radio navigation aids

VOR radial/distance  VOR name  Freq  Var
OODr032/19.6WOODSTOWN VORTAC112.8010W
ARDr219/21.8YARDLEY VOR/DME108.2010W
MXEr096/24.4MODENA VORTAC113.2009W
VCNr351/25.3CEDAR LAKE VOR/DME115.2010W
GXUr272/25.4MC GUIRE VORTAC110.6012W
PTWr141/25.7POTTSTOWN VORTAC116.5009W
DQOr064/26.5DUPONT VORTAC114.0010W
CYNr292/33.5COYLE VORTAC113.4010W
RBVr252/33.7ROBBINSVILLE VORTAC113.8010W
ACYr328/38.9ATLANTIC CITY VORTAC117.1510W

 
NDB name  Hdg/Dist  Freq  Var  ID
AMBLER162/13.127512WING .. -. --.
RAINBOW010/31.136311WRNB .-. -. -...
LAKEHURST271/37.639611WNEL -. . .-..

Heliport Services

Fuel available: A
Parking: hangars and tiedowns

Runway Information

Helipad H1

Dimensions: 68 x 68 ft. / 21 x 21 m
Surface: asphalt, in fair condition
Latitude: 39-56.240100N
Longitude: 075-08.477267W
Elevation: 15.0 ft.
Traffic pattern: leftleft
Markings: basic, in fair condition
Approach lights: NSTD
GREEN LGTS ON E AND S SIDES ONLY.

Heliport Ownership and Management from official FAA records

Ownership: Publicly-owned
Owner: PHILADELPHIA PORT CORPORATION
1020 PUBLIC LEDGER BLDG
PHILADELPHIA, PA 19106
Phone 215-928-9100
Manager: PHIL BIDDEN
801 S COLUMBUS BLVD
PHILADELPHIA, PA 19147
Phone 215-271-2510

Heliport Operational Statistics

Aircraft based on the field: 1
Helicopters: 1
    
Aircraft operations: avg 33/day *
75% transient general aviation
24% local general aviation
<1% military
* for 12-month period ending 27 June 2019

Additional Remarks

A52-H1 LGTD BLDG 660 FT NORTH OF PAD.
RY H1 SHALLOW SFC DEPRESSIONS.
H1 INGRESS 230/310 DEGS, EGRESS 050/130 DEGS.
LGTD BUILDING 660 FT NORTH OF PAD.
FOR CD CTC PHILADELPHIA APCH AT 800-354-9884.

Instrument Procedures

There are no published instrument procedures at P72.

Some nearby airports with instrument procedures:

KPHL - Philadelphia International Airport (6 nm SW)
KPNE - Northeast Philadelphia Airport (11 nm NE)
19N - Camden County Airport (13 nm SE)
KLOM - Wings Field Airport (13 nm NW)
KVAY - South Jersey Regional Airport (14 nm E)
17N - Cross Keys Airport (15 nm S)
N14 - Flying W Airport (15 nm E)
7N7 - Spitfire Aerodrome (17 nm SW)
 
Loc | Ops | Rwys | IFR | FBO | Links
Com | Nav | Svcs | Stats | Notes
Area around P72 (Penn's Landing Heliport)
 
Road maps at: MapQuest Bing Google
 
Aerial photo
WARNING: Photo may not be current or correct
Aerial photo of P72 (Penn's Landing Heliport)
Photo by Alex St. Pedro
Photo taken 22-Apr-2009

Do you have a better or more recent aerial photo of Penn's Landing Heliport that you would like to share? If so, please send us your photo.

 
Sectional chart

 
Airport distance calculator
Flying to Penn's Landing Heliport? Find the distance to fly.

From to P72

Sunrise and sunset
Times for 13-Jul-2020
 Local
(UTC-4)
 Zulu
(UTC)
Morning civil twilight05:1309:13
Sunrise05:4509:45
Sunset20:2800:28
Evening civil twilight21:0001:00

Current date and time
Zulu (UTC)  13-Jul-2020 20:27:27
Local (UTC-4)  13-Jul-2020 16:27:27
 
METAR
KPHL 
6nm SW 
131954Z 29012KT 10SM FEW055 FEW120 31/15 A2982 RMK AO2 SLP097 T03110150
KPNE 
10nm NE 
131954Z 30012KT 10SM CLR 30/16 A2983 RMK AO2 SLP099 T03000156
KLOM 
13nm NW 
132015Z AUTO 00000KT 10SM CLR 29/17 A2983 RMK AO2 P0001 T02890171
KVAY 
14nm E 
ASOS 119.325 609-267-1176
131954Z AUTO 27006KT 10SM CLR 31/14 A2981 RMK AO2 SLP094 T03110144
TAF
KPHL 
6nm SW 
131723Z 1318/1424 32010KT P6SM FEW040 BKN250 FM132300 28008KT P6SM SCT250 FM140500 30005KT P6SM FEW250 FM141400 32008KT P6SM FEW250 FM141800 30010KT P6SM FEW250
KPNE 
10nm NE 
131723Z 1318/1418 32010KT P6SM FEW250 FM132300 30004KT P6SM FEW250 FM141500 32008KT P6SM FEW250
NOTAMs
Click for the latest NOTAMs
NOTAMs are issued by the DoD/FAA and will open in a separate window not controlled by AirNav.

 

 
 

FBO, Fuel Providers, and Aircraft Ground Support

  
 Business Name 
 
 Contact 
 
 Services / Description 
 
Fuel Prices
 
Comments
  
Sterling Helicopter 215-271-2510
no information available

If you are affiliated with Sterling Helicopter and would like to show here your services, contact info, web link, logo, and more, click here
Jet A
FS $5.95 
 Updated 22-Jun-2020
 
   write
FS=Full service
Update Fuel Prices
 

Would you like to see your business listed on this page?

 If your business provides an interesting product or service to pilots, flight crews, aircraft, or users of the Penn's Landing Heliport, you should consider listing it here.  To start the listing process, click on the button below
 
Add a business
 

Other Pages about Penn's Landing Heliport

Update a link
 
Copyright © AirNav, LLC. All rights reserved. Privacy Policy  Contact